SEASAT 1 1 10967U 78064A 10067.74219347 -.00000060 +00000-0 +23275-4 0 00619 2 10967 108.0107 155.2266 0003564 250.8084 109.2673 14.42184951663310 LANDSAT 4 1 13367U 82072A 10067.73632914 +.00000237 +00000-0 +23033-4 0 03719 2 13367 098.1950 002.3306 0018681 167.5051 192.6637 15.02356995484237 LANDSAT 5 1 14780U 84021A 10067.84733903 +.00000060 +00000-0 +23405-4 0 05851 2 14780 098.2083 137.2363 0002988 030.9760 329.1619 14.57111624383927 COSMOS 1602 1 15331U 84105A 10067.45287281 +.00000387 +00000-0 +27654-4 0 00359 2 15331 082.5263 020.7979 0016067 047.2261 313.0311 15.01491049381689 SPOT 1 1 16613U 86019A 10067.68665493 +.00000049 +00000-0 +19727-4 0 06633 2 16613 098.7267 294.3951 0151660 330.5038 028.7662 14.60909097940988 COSMOS 1766 1 16881U 86055A 10067.66563443 +.00000637 +00000-0 +49318-4 0 06227 2 16881 082.5083 079.7989 0015729 112.7113 247.5758 14.99681739281850 MOS 1A (MOMO 1) 1 17527U 87018A 10067.75624165 +.00000037 +00000-0 +53107-4 0 03518 2 17527 098.9957 029.5329 0008964 061.0404 299.1662 14.01927699177034 IRS 1A 1 18960U 88021A 10067.83523531 +.00000105 +00000-0 +10933-3 0 07800 2 18960 099.3235 037.4974 0013830 239.2505 120.7299 13.96429234023628 OKEAN 1 1 19274U 88056A 10067.49944211 +.00000202 +00000-0 +15265-4 0 09535 2 19274 082.5072 194.0732 0014486 331.9473 028.0968 14.96864429176288 SPOT 2 1 20436U 90005A 10067.77145728 +.00000140 +00000-0 +34211-4 0 00692 2 20436 098.6352 152.6883 0155040 205.9380 153.3986 14.61950311044201 MOS 1B (MOMO 1B) 1 20478U 90013A 10065.47791737 .00000203 00000-0 18268-3 0 9118 2 20478 098.9390 023.5736 0005545 156.5974 203.5421 13.94970457942879 OKEAN 2 1 20510U 90018A 10067.73885702 +.00000436 +00000-0 +40628-4 0 03238 2 20510 082.5190 187.9758 0012590 270.9604 089.0181 14.91827265084357 OKEAN 3 1 21397U 91039A 10067.72165066 +.00000255 +00000-0 +25589-4 0 09154 2 21397 082.5235 130.9190 0021654 083.4902 276.8772 14.86916004014188 ERS 1 1 21574U 91050A 10067.62806662 -.00000062 +00000-0 -73821-5 0 06920 2 21574 098.1552 076.5756 0034066 358.5683 001.5387 14.35697694976037 IRS 1B 1 21688U 91061A 10067.82759133 -.00000321 +00000-0 -20048-3 0 07256 2 21688 098.7067 069.6955 0025154 115.6172 244.7599 13.96929366838579 TOPEX/POSEIDON 1 22076U 92052A 10067.68608072 -.00000038 +00000-0 +10000-3 0 04931 2 22076 066.0380 241.3052 0007110 267.9797 092.0400 12.80950877822122 SPOT 3 1 22823U 93061A 10067.77040491 +.00000021 +00000-0 +30565-4 0 04926 2 22823 098.6071 021.5758 0016802 330.8544 029.1695 14.18691106851667 OKEAN 4 1 23317U 94066A 10067.70682779 +.00000276 +00000-0 +31127-4 0 01727 2 23317 082.5376 087.6467 0021106 209.2431 150.7604 14.82777182831561 IRS P2 1 23323U 94068A 10067.83474458 +.00000018 +00000-0 +26268-4 0 05608 2 23323 098.4473 034.2174 0000967 078.0121 282.1167 14.23082761799446 RESURS O1 1 23342U 94074A 10067.74233434 -.00000036 +00000-0 +22260-5 0 08516 2 23342 098.0526 044.5850 0001528 058.3132 301.8226 14.76835545825241 ERS 2 1 23560U 95021A 10067.91861255 +.00000226 +00000-0 +10000-3 0 09808 2 23560 098.5288 144.2205 0001439 101.5674 015.8620 14.32251310778104 SICH 1 1 23657U 95046A 10067.76695407 +.00000443 +00000-0 +52975-4 0 09695 2 23657 082.5268 228.6184 0022993 206.3947 153.6100 14.81727178783441 RADARSAT 1 23710U 95059A 10065.41646009 .00000182 00000-0 87515-4 0 1019 2 23710 098.5814 073.4855 0001087 094.5799 041.8365 14.29979103748282 IRS 1C 1 23751U 95072A 10067.79283204 +.00000225 +00000-0 +12050-3 0 09204 2 23751 098.3543 062.8949 0000904 084.8291 275.2979 14.21859667736674 IRS B3 1 23827U 96017A 10067.74222323 +.00000002 +00000-0 +19829-4 0 08033 2 23827 098.4238 037.2131 0003031 170.6026 189.5211 14.21716063724713 TOMS EP 1 23940U 96037A 10067.67235847 +.00000047 +00000-0 +22158-4 0 02962 2 23940 097.9955 292.9986 0028594 257.0418 102.7603 14.52292505727813 ADEOS 1 24277U 96046A 10067.83809322 +.00000084 +00000-0 +50240-4 0 03009 2 24277 098.4038 027.1590 0000813 153.6228 206.4990 14.28610617706716 ORBVIEW 2 (SEASTAR) 1 24883U 97037A 10067.40661336 +.00000052 +00000-0 +20844-4 0 00758 2 24883 098.3701 198.4566 0002514 100.5200 259.6305 14.60027421670992 IRS 1D 1 24971U 97057A 10067.85757437 -.00000097 +00000-0 -20178-4 0 01847 2 24971 098.2102 095.7032 0053301 224.1431 135.5481 14.32967135650731 TRMM 1 25063U 97074A 10067.96664766 +.00006952 +00000-0 +96632-4 0 03049 2 25063 034.9656 027.1699 0000976 266.5612 093.5007 15.56203905701362 SPOT 4 1 25260U 98017A 10067.78509702 +.00000053 +00000-0 +45000-4 0 00028 2 25260 098.6651 140.6911 0001098 130.5232 229.6042 14.20074990619881 RESURS O1-N4 1 25394U 98043A 10067.67230692 +.00000004 +00000-0 +19221-4 0 04512 2 25394 098.3138 091.1898 0001888 126.9798 233.1559 14.24194596606049 FASAT B 1 25395U 98043B 10065.21452293 .00000033 00000-0 32025-4 0 6841 2 25395 098.3116 087.5883 0003280 142.6350 217.5062 14.24377587605740 TMSAT 1 25396U 98043C 10067.79621188 -.00000018 +00000-0 +98998-5 0 06451 2 25396 098.3148 086.7050 0002618 157.0690 203.0605 14.23796352605954 TECHSAT 1B 1 25397U 98043D 10065.17360531 -.00000087 00000-0 -20733-4 0 1288 2 25397 098.3168 078.2872 0001386 160.3802 199.7431 14.23172344605393 ROCSAT 1 1 25616U 99002A 10067.89659469 +.00000803 +00000-0 +62939-4 0 00524 2 25616 034.9658 011.1615 0047782 269.1387 090.3864 15.00645780607218 SUNSAT 1 25636U 99008C 10067.71621875 +.00000049 +00000-0 +20178-4 0 05541 2 25636 096.4725 193.3285 0149410 104.0045 257.7820 14.43491527581264 LANDSAT 7 1 25682U 99020A 10067.81379292 +.00000015 +00000-0 +13398-4 0 06821 2 25682 098.2197 137.4301 0001113 115.1237 245.0051 14.57104707579617 OSCAR 36 (UOSAT 12) 1 25693U 99021A 10065.46497743 -.00000085 00000-0 79224-5 0 1425 2 25693 064.5595 030.0583 0026570 323.9355 035.9950 14.78783605586627 KITSAT 3 1 25756U 99029A 10067.61227534 -.00000069 +00000-0 -49613-5 0 01478 2 25756 098.6506 273.8307 0014867 088.5527 271.7367 14.52565460571545 TUBSAT 1 25757U 99029B 10067.69409210 -.00000076 +00000-0 -70407-5 0 06658 2 25757 098.6813 264.5915 0015282 116.5739 243.7008 14.50855964571065 IRS P4 (OCEANSAT 1) 1 25758U 99029C 10067.68378190 +.00001061 +00000-0 +28000-3 0 03885 2 25758 098.2678 163.3550 0001170 116.6763 243.4521 14.50871871571210 QUIKSCAT 1 25789U 99034A 10067.61511938 -.00000012 +00000-0 +13233-4 0 06610 2 25789 098.6311 258.2423 0000405 105.6498 254.4729 14.26800453558160 OKEAN O 1 25860U 99039A 10067.78737862 +.00000060 +00000-0 +16585-4 0 09336 2 25860 097.8216 043.9593 0001851 063.0500 297.0900 14.73619428572116 IKONOS 2 1 25919U 99051A 10065.37186809 .00000029 00000-0 14334-4 0 9422 2 25919 098.1044 141.7706 0001193 063.1474 296.9856 14.64449865558430 CBERS 1 1 25940U 99057A 10067.57476390 +.00000086 +00000-0 +44721-4 0 05278 2 25940 098.1686 063.3756 0005499 022.8563 337.2885 14.34478802544711 TERRA 1 25994U 99068A 10067.83148718 +.00000074 +00000-0 +26488-4 0 05770 2 25994 098.2111 143.9061 0000686 070.2357 289.8899 14.57109947543698 KOMPSAT 1 26032U 99070A 10067.84415823 +.00000107 +00000-0 +28001-4 0 07066 2 26032 097.8862 303.4888 0006245 110.7490 249.4383 14.65675209546258 TIUNGSAT 1 1 26548U 00057D 10067.71969609 +.00000226 +00000-0 +45190-4 0 06336 2 26548 064.5564 341.9218 0043543 236.4983 123.1989 14.83450665511191 EO 1 1 26619U 00075A 10067.81498763 -.00000072 +00000-0 -50080-5 0 09445 2 26619 098.1438 136.3991 0010087 192.0872 168.0045 14.62083663494938 SAC C 1 26620U 00075B 10067.59551595 +.00000150 +00000-0 +43154-4 0 09454 2 26620 097.8871 091.5632 0000916 090.1958 269.9439 14.56601786494162 EROS A1 1 26631U 00079A 10067.82093681 +.00002106 +00000-0 +10476-3 0 07094 2 26631 097.4543 134.9664 0009864 138.5705 357.7289 15.18686599514673 QUICKBIRD 2 1 26953U 01047A 10065.41090788 .00003783 00000-0 97094-4 0 70 2 26953 097.1167 140.5052 0001801 065.5507 063.2788 15.39918286470965 TES 1 26957U 01049A 10067.82750204 +.00000951 +00000-0 +78459-4 0 09986 2 26957 097.6329 145.2274 0025439 005.7257 354.4272 15.01138767458903 JASON 1 26997U 01055A 10067.89312010 -.00000038 +00000-0 +10000-3 0 01530 2 26997 066.0402 240.6779 0007084 276.5603 083.4605 12.80931407385946 METEOR 3M 1 27001U 01056A 10067.65009379 -.00000038 +00000-0 +50806-5 0 05986 2 27001 099.2330 277.1252 0014360 069.2374 291.0307 13.68714711411691 BADR B 1 27003U 01056C 10067.74818795 -.00000024 +00000-0 +20805-4 0 04684 2 27003 099.2187 283.7954 0020966 070.2563 290.0842 13.70103061412187 MAROC TUBSAT 1 27004U 01056D 10067.74153447 +.00000024 +00000-0 +74373-4 0 04634 2 27004 099.2133 283.0418 0020541 071.8067 288.5307 13.70031165412152 ENVISAT 1 27386U 02009A 10067.83036443 -.00000035 +00000-0 +30704-5 0 08494 2 27386 098.5475 136.3857 0000969 102.0606 031.5513 14.32247386419370 SPOT 5 1 27421U 02021A 10067.84275300 +.00000250 +00000-0 +13800-3 0 09198 2 27421 098.7412 143.1442 0000871 078.8956 057.0816 14.20025731406728 AQUA 1 27424U 02022A 10067.71511911 +.00000102 +00000-0 +32737-4 0 05787 2 27424 098.2094 010.7149 0001652 072.1760 287.9602 14.57122354417282 HAIYANG 1 1 27430U 02024A 10065.29588717 .00000025 00000-0 26208-4 0 2894 2 27430 098.4408 129.0883 0009462 031.3479 328.8272 14.29742693407527 ALSAT 1 1 27559U 02054A 10067.82670763 +.00000061 +00000-0 +18392-4 0 02517 2 27559 097.9044 299.7810 0022343 231.1493 128.7729 14.69371984388586 ADEOS 2 1 27597U 02056A 10067.77107983 +.00000038 +00000-0 +33338-4 0 00917 2 27597 098.4382 128.2643 0000433 146.6021 213.5182 14.26196752376508 ICESAT 1 27642U 03002A 10067.97232705 +.00000623 +00000-0 +64610-4 0 05061 2 27642 093.9935 067.1836 0003695 051.0245 309.1310 14.90876794389116 ORBVIEW 3 1 27838U 03030A 10067.83091026 +.00003702 +00000-0 +89239-4 0 03886 2 27838 097.0204 122.1334 0001750 110.9350 249.1936 15.41831694376169 IRS P6 1 28051U 03046A 10065.80431884 .00000176 00000-0 10000-3 0 4923 2 28051 098.6837 143.0062 0003078 105.6363 042.8495 14.21646860331420 CBERS 2 1 28057U 03049A 10067.77459146 -.00000040 +00000-0 +37322-6 0 00691 2 28057 098.2446 113.6684 0000526 316.0914 044.0227 14.34926905334342 TANSUO 1 1 28220U 04012A 10067.67379541 +.00000329 +00000-0 +40551-4 0 04670 2 28220 097.4667 095.5573 0012771 038.7212 321.4885 14.88786359319766 ROCSAT 2 1 28254U 04018A 10067.85616669 +.00000104 +00000-0 +10000-3 0 05608 2 28254 099.0948 130.7808 0000724 180.9165 309.4577 14.00728631296578 AURA 1 28376U 04026A 10067.85775766 +.00000134 +00000-0 +39674-4 0 07431 2 28376 098.2072 012.9276 0001400 075.5559 284.5798 14.57118569300355 CARTOSAT-1 1 28649U 05017A 10067.83112047 +.00000083 +00000-0 +16885-4 0 04653 2 28649 097.9256 141.8284 0000811 063.5298 296.6008 14.82626089262074 TOPSAT 1 28891U 05043B 10065.76262224 .00000013 00000-0 12211-4 0 8762 2 28891 098.0192 312.4707 0016001 244.5807 115.3745 14.59797776232174 SINAH 1 1 28893U 05043D 10067.73860296 -.00000027 +00000-0 +39142-5 0 07078 2 28893 098.0224 315.5483 0014623 237.7440 122.2344 14.60101650232514 ALOS 1 28931U 06002A 10067.83336729 +.00000187 +00000-0 +48995-4 0 06190 2 28931 098.1605 144.2204 0001173 097.1064 263.0263 14.59570362219501 EROS B 1 29079U 06014A 10067.92384681 +.00002830 +00000-0 +14031-3 0 03644 2 29079 097.4181 188.5732 0009472 203.8636 304.9251 15.18512839214681 YAOGAN 1 1 29092U 06015A 10067.85525684 -.00000220 +00000-0 -22194-4 0 03320 2 29092 097.8631 061.2183 0001555 093.8706 266.2668 14.80270713208928 RESURS DK-1 1 29228U 06021A 10067.86660293 +.00002010 +00000-0 +46170-4 0 01971 2 29228 069.9331 025.8327 0156054 107.3815 254.4522 15.33075114208889 KOMPSAT 2 1 29268U 06031A 10065.35235163 .00000100 00000-0 29224-4 0 206 2 29268 098.0111 315.3343 0018722 045.9404 314.3322 14.61744125192383 LAPAN-TUBSAT 1 29709U 07001A 10067.84190360 +.00000028 +00000-0 +10342-4 0 05079 2 29709 097.7736 120.8593 0014022 137.8760 222.3536 14.80286461170637 CARTOSAT 2AT 1 29710U 07001B 10067.91090557 -.00000157 +00000-0 -14423-4 0 05031 2 29710 097.9744 129.1188 0001992 103.0306 257.1117 14.78622402170508 HAIYANG 1B 1 31113U 07010A 10067.80991105 -.00000004 +00000-0 +15135-4 0 02395 2 31113 098.5125 140.9747 0013847 012.0768 348.0747 14.29457150151749 SKYMED 1 1 31598U 07023A 10065.40508610 -.00000232 00000-0 -22646-4 0 662 2 31598 097.8640 254.6682 0001269 087.3999 272.7377 14.82164577148461 TERRA SAR X 1 31698U 07026A 10065.49970451 -.00000036 00000-0 14901-5 0 376 2 31698 097.4461 074.1524 0001646 079.1895 072.1312 15.19151733151097 WORLDVIEW 1 1 32060U 07041A 10065.51775963 .00001161 00000-0 50291-4 0 7514 2 32060 097.4034 145.4331 0001399 050.5619 074.1643 15.24376575137055 CBERS 2B 1 32062U 07042A 10065.52248117 .00000072 00000-0 37677-4 0 7416 2 32062 098.4548 143.1736 0026105 286.4718 073.3605 14.38460584129120 SKYMED 2 1 32376U 07059A 10065.50635481 .00000318 00000-0 46449-4 0 4792 2 32376 097.8637 254.7684 0001335 089.1202 271.0162 14.82167582121224 RADARSAT 2 1 32382U 07061A 10067.83014009 +.00000059 +00000-0 +39831-4 0 04628 2 32382 098.5814 076.7141 0001076 091.2049 031.3908 14.29983478116513 CARTOSAT 2A 1 32783U 08021A 10067.86864501 +.00000017 +00000-0 +94460-5 0 00690 2 32783 097.9106 131.5613 0014316 277.4597 082.4991 14.78697346100440 IMS-1 1 32786U 08021D 10067.84915960 -.00000075 +00000-0 -29917-5 0 06425 2 32786 097.9109 132.8231 0011389 248.1963 111.8008 14.80058123100538 GLAST 1 33053U 08029A 10067.88641624 +.00000279 +00000-0 +00000-0 0 04562 2 33053 025.5846 001.9183 0013970 290.2979 069.6067 15.05019299095803 JASON 2 1 33105U 08032A 10067.77324040 -.00000050 +00000-0 +46041-4 0 05784 2 33105 066.0393 241.3304 0007393 272.0577 087.9585 12.80930635080232 RAPIDEYE 2 1 33312U 08040A 10065.52391356 -.00000440 00000-0 -51260-4 0 7165 2 33312 097.9556 153.6800 0011966 348.8740 011.2215 14.79891898 82001 RAPIDEYE 5 1 33313U 08040B 10065.48216937 .00000089 00000-0 18833-4 0 7056 2 33313 097.9560 152.9882 0017400 209.1238 150.9010 14.79927606 81942 RAPIDEYE 1 1 33314U 08040C 10065.53715206 -.00000014 00000-0 51879-5 0 7514 2 33314 097.9559 153.7859 0024973 357.2272 002.8771 14.79927800 81990 RAPIDEYE 3 1 33315U 08040D 10067.80784831 +.00000076 +00000-0 +16985-4 0 06926 2 33315 097.9537 155.4095 0011087 284.1570 075.8419 14.79928227082296 RAPIDEYE 4 1 33316U 08040E 10065.49515757 .00000090 00000-0 18934-4 0 6763 2 33316 097.9537 152.9884 0011230 229.0008 131.0236 14.79928530 81949 HJ-1A 1 33320U 08041A 10065.49133680 .00000064 00000-0 17032-4 0 6556 2 33320 097.9527 142.1621 0024125 320.7931 039.1531 14.75230564 80566 HJ-1B 1 33321U 08041B 10065.38790289 .00000034 00000-0 12683-4 0 6935 2 33321 097.9549 142.0994 0042661 332.3811 027.5139 14.75240580 80535 GEOEYE 1 1 33331U 08042A 10065.74591583 -.00000017 00000-0 56990-5 0 6665 2 33331 098.0812 141.0828 0010288 338.2372 021.8383 14.64461682 79906 THEOS 1 33396U 08049A 10067.82009412 +.00000197 +00000-0 +11301-3 0 04581 2 33396 098.7086 136.5539 0000834 088.2701 048.2605 14.20038450074336 SKYMED 3 1 33412U 08054A 10065.49368903 .00000336 00000-0 48672-4 0 5049 2 33412 097.8641 254.7552 0001224 088.3324 271.8049 14.82168131 73687 YAOGAN 4 1 33446U 08061A 10067.82586776 -.00000031 +00000-0 +28470-5 0 04174 2 33446 097.8772 147.5207 0012627 254.5436 105.4362 14.75510330068223 YAOGAN 5 1 33456U 08064A 10065.54562708 .00001590 00000-0 66254-4 0 3983 2 33456 097.3454 141.2885 0005229 151.4124 332.6247 15.25147360 68038